RH
11 11 15 18 23 23 21 20 18 20 34 32 34 41 48 46 47 86 56 56 36 41 55 70 81 82 78 78 75 68 71 76 75 72 67 66 61 61 64 64 66 70 88 90 64 59 58 60 57
13 14 17 21 28 31 27 19 22 20 34 52 75 59 47 62 50 52 54 54 52 53 64 80 83 87 87 87 85 86 83 80 76 84 88 88 86 84 87 85 82 78 78 57 50 49 50 51 58
16 22 22 26 27 27 23 20 20 19 25 40 67 50 47 54 48 49 50 62 63 59 65 75 76 71 76 82 82 79 80 82 85 86 87 88 86 88 90 92 91 91 92 96 69 60 52 48 44
20 20 19 21 18 14 15 15 17 42 52 42 45 64 46 45 50 47 58 55 52 72 72 69 69 72 74 81 83 85 85 85 87 89 90 93 92 89 85 77 73 72 71 71 74 76 75 68 64
20 19 22 21 16 12 14 13 13 48 44 52 53 61 55 48 48 61 60 51 46 68 70 66 63 63 66 70 69 73 77 81 80 79 83 83 87 85 80 79 79 81 82 82 82 81 80 78 76
16 17 22 24 16 16 15 13 29 44 56 59 61 58 78 73 67 76 68 61 57 69 73 71 66 63 61 67 63 67 75 78 76 79 81 80 79 81 84 83 74 63 62 59 68 69 59 44 39
15 19 21 17 16 17 14 13 32 38 49 56 50 71 83 84 82 83 78 76 72 72 76 78 78 82 75 89 81 84 85 82 83 77 75 66 62 54 44 40 40 39 39 42 45 46 46 40 43
12 14 14 13 18 17 12 11 30 42 56 47 50 80 95 86 92 84 88 92 95 91 87 84 84 87 99 99 92 88 88 94 96 82 74 68 55 50 47 48 48 44 43 42 42 44 51 52 53
10 19 20 14 14 13 10 45 46 43 56 46 46 65 79 89 86 84 91 96 100 100 100 99 100 99 100 100 98 92 94 87 85 80 67 64 58 62 58 55 50 48 49 50 45 40 41 43 44
13 17 12 11 12 13 13 31 43 51 58 70 73 67 70 76 79 86 98 98 100 100 100 98 98 99 96 95 84 83 87 82 77 73 68 62 60 58 53 50 46 46 47 47 46 45 43 39 40
10 10 9 13 13 11 31 40 43 51 61 61 70 63 56 67 69 79 96 100 99 100 94 97 95 92 85 88 82 77 67 65 68 60 52 61 51 50 50 51 53 54 52 52 50 50 48 45 43
8 8 8 10 10 11 39 37 49 54 54 49 51 50 56 62 76 85 99 100 100 98 100 98 97 88 84 79 76 68 50 47 50 55 57 56 55 56 57 57 57 55 54 54 50 48 46 44 47
8 8 10 8 10 45 42 51 53 49 44 43 45 52 63 73 86 97 96 91 96 97 99 99 96 80 74 68 60 57 58 57 62 60 58 59 60 60 59 59 58 55 50 49 47 44 43 39 38
8 10 9 7 9 43 50 55 50 59 42 41 50 57 62 72 95 94 99 100 97 100 99 99 90 77 68 60 57 60 59 62 65 67 66 62 64 62 61 58 56 53 49 48 50 47 49 44 37
10 12 9 8 8 32 48 68 77 64 49 51 53 55 65 79 88 90 90 94 91 93 92 75 60 57 55 56 59 62 66 68 69 67 65 63 62 62 59 57 56 56 48 49 48 44 48 43 36
12 10 13 11 13 35 39 89 75 64 61 62 57 63 64 70 85 86 85 84 83 76 70 67 57 56 58 58 60 62 65 68 68 66 64 63 67 62 52 57 56 54 48 45 47 45 46 41 33
15 16 16 14 14 15 27 91 79 64 70 78 81 72 76 80 76 80 77 78 76 69 65 67 62 58 57 57 58 60 64 68 70 70 68 62 64 66 55 52 59 54 41 32 42 42 40 40 29
17 18 17 19 16 49 74 90 86 73 75 82 83 83 84 83 80 68 67 55 54 60 64 61 56 55 56 57 57 61 66 68 70 72 72 63 60 61 57 50 53 48 32 25 27 36 40 43 32
14 15 14 18 15 46 73 91 87 77 78 90 89 87 87 78 67 64 54 51 56 62 62 58 56 54 54 56 60 65 68 70 74 75 71 68 61 50 52 47 46 45 38 41 40 40 45 43 36
16 16 16 16 15 16 76 88 83 75 84 82 90 90 81 77 65 51 51 51 54 58 60 60 50 52 54 54 58 64 67 70 71 72 69 60 51 35 40 42 43 42 41 44 41 51 46 45 42
15 17 19 19 18 17 34 89 88 74 78 79 81 78 71 72 56 52 51 47 49 53 58 59 57 56 56 57 58 63 66 71 74 72 66 59 43 37 39 42 48 43 40 50 51 54 51 50 43
19 16 16 15 23 31 22 42 90 81 75 79 80 78 72 62 51 50 50 47 45 50 52 52 53 54 53 51 51 56 65 72 76 67 65 57 44 36 46 44 45 45 45 51 55 56 53 54 52
17 17 20 19 20 23 22 29 68 77 78 80 81 76 72 64 50 51 51 46 44 45 48 50 50 54 53 52 53 59 67 67 66 65 64 56 44 40 44 49 45 45 47 50 55 56 52 58 55
13 18 20 24 26 37 26 28 94 88 76 73 78 74 71 69 47 46 47 45 45 44 46 49 49 50 53 56 56 61 59 61 62 65 65 49 43 42 43 46 49 47 47 47 57 54 54 55 58
17 23 41 44 42 41 29 31 22 67 60 66 74 72 67 61 46 45 48 48 50 47 48 51 50 52 53 55 57 59 59 60 62 60 52 46 44 44 41 46 47 48 48 45 56 51 55 54 57
22 29 53 50 48 53 41 48 44 43 47 56 60 62 60 50 44 42 45 46 52 50 50 52 51 51 55 58 61 67 66 65 65 55 53 43 40 41 38 44 48 48 48 41 52 52 51 50 55
22 30 25 36 34 64 52 42 34 29 46 51 55 58 57 44 43 41 44 45 51 52 53 52 51 52 57 61 67 70 69 66 61 52 47 43 37 33 39 42 47 49 49 46 46 52 50 49 54
20 23 34 41 50 53 51 51 61 41 35 51 49 52 47 42 41 42 43 47 50 50 51 51 52 53 58 64 67 67 61 58 53 53 45 41 35 41 42 43 45 47 46 47 47 51 49 50 54
25 27 25 36 47 61 62 67 52 44 37 48 52 47 44 42 41 43 44 47 48 50 52 52 52 54 62 64 65 66 63 60 58 54 44 42 40 38 40 41 42 43 43 46 48 50 52 51 54
23 25 28 72 46 61 77 59 35 39 37 40 48 45 45 40 41 42 46 46 51 55 57 54 52 56 61 64 65 66 63 61 57 49 44 44 43 42 38 39 42 43 44 47 48 50 49 52 55
Wind_Speed
19 17 15 5 4 3 4 1 10 13 10 20 22 16 14 11 7 9 15 22 27 24 21 20 20 19 18 17 17 16 17 16 16 15 15 16 16 17 17 17 16 16 16 15 14 13 13 12 11
19 18 3 1 3 4 5 10 12 10 17 34 31 11 19 18 16 17 14 21 25 25 23 22 22 21 20 19 19 18 17 16 16 16 16 16 17 17 17 17 16 15 15 14 13 13 12 11 10
17 9 2 4 2 3 4 8 9 7 13 20 8 2 5 16 14 9 31 28 24 26 24 23 22 23 21 21 21 20 19 18 17 16 16 16 16 15 14 13 12 13 14 14 13 12 11 11 10
6 3 4 2 3 5 8 6 4 14 12 11 19 10 10 23 9 26 35 26 28 26 24 23 23 22 23 23 21 20 18 16 16 16 16 16 14 13 11 12 13 13 12 11 10 10 10 9 9
2 2 3 5 5 3 7 8 9 23 16 19 23 12 18 24 32 41 35 28 29 25 24 23 21 21 20 19 20 17 16 15 15 14 13 14 13 13 14 13 13 13 12 12 11 11 11 11 12
4 2 4 4 9 5 7 10 25 25 25 20 18 19 10 31 35 30 31 29 27 26 23 23 20 20 21 18 20 19 17 16 16 18 17 15 15 15 15 15 17 17 17 16 16 16 16 18 20
4 2 4 5 4 9 5 5 16 17 13 6 15 10 5 28 33 32 32 28 25 22 22 22 21 20 21 20 22 21 20 18 18 19 19 23 22 20 20 20 21 22 22 21 20 19 15 17 21
3 3 6 9 4 4 4 5 15 15 8 15 14 8 10 19 34 38 33 31 25 24 22 19 19 20 22 22 22 22 19 19 18 17 13 16 20 21 21 21 18 18 21 20 18 18 18 16 16
3 3 4 6 7 3 7 15 20 17 19 3 5 20 27 31 36 36 32 28 25 26 23 21 21 21 21 19 19 19 17 15 11 12 16 14 12 12 13 14 16 16 16 16 16 16 15 15 16
3 3 4 6 5 6 12 14 12 13 22 25 26 26 29 28 27 25 24 20 21 21 23 21 18 16 16 15 15 15 14 13 12 12 11 13 9 11 12 14 16 15 16 17 18 20 21 20 21
3 1 6 6 7 10 10 19 5 12 6 20 24 24 23 25 22 21 20 21 22 19 16 15 14 13 13 15 15 15 16 17 15 14 13 12 12 15 17 18 18 18 19 19 17 17 19 20 18
1 6 4 4 6 7 10 15 14 13 7 18 18 20 26 21 19 21 19 22 22 20 15 12 13 15 16 18 17 16 19 20 20 20 19 17 17 18 17 17 17 16 18 17 16 17 18 14 13
5 7 7 7 7 12 18 13 9 16 18 18 23 20 17 20 22 20 19 18 17 17 15 15 14 17 19 19 20 21 22 21 20 19 17 16 16 15 14 15 16 14 14 18 16 17 18 14 13
3 7 9 9 4 11 14 4 6 6 12 14 19 16 16 21 22 19 17 17 17 17 16 15 16 18 19 23 25 22 21 21 20 19 16 16 15 13 11 14 18 15 13 15 17 16 18 15 12
4 7 9 8 5 9 17 7 3 4 7 14 15 14 17 22 24 20 18 18 18 20 21 22 25 25 25 25 23 21 21 19 19 17 15 17 13 13 13 15 17 17 15 12 15 15 19 16 14
6 4 4 8 8 13 10 4 1 4 8 11 12 15 14 13 24 24 23 20 21 23 24 25 24 22 20 20 21 21 19 17 16 15 14 15 14 13 14 14 14 13 15 15 16 20 21 20 18
3 6 7 2 10 7 6 6 7 4 6 9 8 9 12 13 16 24 23 23 22 23 24 23 22 22 23 24 22 22 20 19 17 15 13 12 15 13 13 14 13 11 13 17 15 18 23 22 20
6 4 6 6 8 8 9 7 9 7 8 5 8 7 9 9 7 21 26 27 25 24 22 23 23 21 21 21 20 20 18 15 12 11 10 10 11 10 10 10 14 11 13 17 16 15 19 21 19
9 4 7 4 4 7 8 13 15 11 11 8 7 6 7 6 12 17 30 28 26 26 23 23 22 21 21 21 21 20 19 14 12 9 8 8 8 8 6 8 11 10 14 15 16 17 17 24 21
4 5 8 3 6 5 11 10 11 10 8 10 10 7 7 7 8 23 29 30 27 25 22 22 21 21 19 17 19 20 19 13 11 9 7 7 7 8 8 10 10 9 12 15 16 17 17 19 23
5 5 7 8 5 3 11 4 14 9 7 10 10 10 10 10 14 17 24 29 26 25 23 21 20 17 16 19 22 20 16 15 14 11 8 7 9 9 9 10 9 10 11 13 14 15 16 16 16
5 9 10 14 4 4 6 4 9 17 14 14 13 12 13 11 13 18 21 28 28 26 22 20 19 16 23 17 17 19 20 20 19 13 7 7 8 9 8 8 8 9 10 12 13 12 13 14 15
9 8 3 6 2 2 8 0 4 15 14 16 16 15 14 10 15 14 23 30 28 26 24 23 20 20 17 17 12 18 19 20 20 10 9 8 8 7 7 6 7 8 9 9 11 11 12 13 12
8 4 4 4 2 3 9 6 8 14 17 18 16 16 16 13 16 22 29 31 30 26 24 25 24 20 19 18 16 17 19 21 16 14 15 12 9 7 4 5 5 6 7 9 8 8 8 9 9
5 1 1 3 2 7 4 8 13 23 20 22 24 20 20 16 18 17 23 26 30 32 27 26 24 24 21 18 16 17 18 18 18 14 17 17 12 5 3 3 3 4 5 6 6 6 7 8 8
9 8 5 7 4 3 4 6 6 13 20 22 23 22 20 16 17 18 25 28 30 34 31 28 25 25 23 20 18 16 17 15 15 13 12 10 7 3 2 3 2 2 3 5 4 5 3 6 6
10 5 8 3 3 2 3 4 9 4 12 18 19 20 20 19 18 18 26 29 31 34 34 30 27 28 26 23 22 20 17 18 18 14 11 11 7 5 4 3 2 1 1 3 3 4 4 4 4
11 4 3 2 6 6 7 5 2 4 2 15 14 19 19 18 17 16 25 27 33 38 37 32 28 30 29 27 24 22 20 19 17 14 12 11 11 9 5 4 3 3 2 2 1 1 2 2 3
2 6 3 4 5 5 2 3 11 9 6 9 11 15 19 18 18 16 24 30 36 39 40 36 31 31 32 30 26 24 22 19 17 16 15 13 10 10 8 6 5 5 4 3 2 1 1 3 4
6 9 8 5 3 2 4 4 12 9 9 8 10 14 15 18 17 16 23 30 31 34 36 39 36 33 35 31 28 24 22 20 17 16 15 14 12 10 9 8 7 6 5 5 3 2 2 3 5
Wind_Direction
320 327 315 293 40 62 314 52 94 75 65 79 60 65 63 46 98 123 121 117 114 109 108 107 111 108 105 103 98 94 94 91 85 79 76 71 67 65 63 64 64 63 59 57 63 61 61 58 58
323 334 351 345 70 9 315 93 85 97 110 85 61 349 53 65 78 119 104 113 107 108 106 104 106 104 102 95 93 92 90 86 79 73 68 68 66 65 59 55 52 51 53 55 54 53 51 51 46
320 312 56 138 197 179 205 114 124 97 98 101 114 19 58 130 92 107 126 116 110 108 106 106 106 106 100 95 92 85 79 76 74 68 63 60 60 67 65 63 64 62 52 45 46 45 43 36 35
326 12 328 90 282 258 102 110 109 105 71 76 142 62 65 103 89 128 120 121 111 107 106 106 105 104 104 102 99 98 94 86 79 74 70 65 59 51 52 47 45 43 37 34 34 34 32 29 22
225 332 356 345 273 88 70 49 57 89 92 95 95 107 99 95 120 117 120 118 117 109 107 107 109 108 104 103 100 91 87 80 72 66 60 57 51 46 41 44 41 36 34 31 31 29 26 24 19
355 96 354 284 315 60 44 45 77 93 107 103 99 112 71 88 97 103 112 110 114 113 111 109 107 107 104 101 98 92 88 84 82 72 61 55 45 43 46 49 47 45 43 40 43 44 46 45 37
141 64 258 256 309 63 44 57 92 130 124 136 141 99 119 94 105 105 105 102 105 107 108 104 106 105 106 107 103 101 96 90 85 78 65 59 53 58 59 60 60 58 53 49 42 37 34 42 39
108 91 312 318 76 61 26 27 96 80 98 138 128 143 131 121 112 111 111 108 111 110 108 108 112 109 104 105 103 105 100 102 90 76 70 61 61 57 58 57 52 58 56 47 39 39 42 37 34
124 58 297 333 45 19 25 81 69 84 122 108 90 116 119 120 112 111 110 109 111 109 112 113 113 114 106 103 97 93 100 100 87 85 92 78 74 57 54 48 49 53 50 43 29 28 27 36 33
88 93 303 335 51 24 29 78 104 94 100 99 102 113 123 121 113 110 104 108 102 99 115 117 117 120 116 106 99 94 94 89 78 88 74 80 89 73 64 59 53 51 48 41 37 34 31 31 31
343 327 312 352 46 33 79 61 75 105 63 127 131 133 133 115 105 108 103 99 105 115 116 119 125 131 116 109 107 95 93 95 90 85 76 87 84 82 66 55 50 44 41 36 34 29 26 28 29
328 279 285 287 57 52 87 79 74 102 120 117 121 125 113 114 108 108 99 115 119 115 116 131 133 124 113 113 106 99 96 95 93 89 84 80 74 69 60 53 45 43 41 36 30 35 33 34 36
343 313 328 338 91 87 81 60 79 101 118 119 113 108 105 106 102 94 112 122 131 127 134 131 124 113 115 110 104 98 91 91 93 89 86 78 71 66 64 57 46 40 43 44 32 37 35 31 35
278 306 307 302 179 127 108 64 73 355 114 115 117 124 117 115 114 114 119 127 138 138 138 134 122 113 112 105 100 97 98 98 93 88 84 79 78 69 60 57 49 40 35 48 43 40 39 27 24
279 317 300 276 217 115 112 40 64 341 137 125 119 128 120 125 129 132 140 138 137 132 122 118 113 112 108 106 108 106 98 96 93 88 87 76 69 63 61 63 57 44 36 47 49 44 39 26 31
301 271 251 257 159 161 113 159 248 326 102 122 129 123 125 126 124 138 142 140 138 130 125 122 116 116 116 114 117 113 108 100 89 84 84 80 70 54 53 56 57 31 33 45 48 39 40 23 13
274 261 248 250 179 160 116 138 183 211 115 109 97 119 109 108 126 141 147 146 146 142 138 132 131 129 124 124 120 116 110 101 92 85 77 80 70 65 54 59 58 26 30 39 41 45 39 21 11
257 288 301 216 216 82 102 119 154 186 140 137 123 105 102 126 160 156 147 140 141 141 139 139 135 135 134 128 125 115 112 104 102 98 85 78 82 76 69 70 61 37 38 41 44 45 47 28 7
239 287 293 331 120 118 137 149 174 169 155 161 147 130 131 151 175 160 141 140 144 143 145 140 138 140 136 135 132 131 124 123 116 108 98 93 75 68 74 79 74 49 52 47 44 46 46 35 18
299 303 285 236 171 110 149 160 163 177 168 164 152 151 158 196 197 137 138 145 150 150 152 149 145 147 148 147 148 146 145 144 134 130 107 90 75 65 80 84 71 60 58 48 44 44 48 48 41
260 242 274 238 212 152 115 129 163 185 154 164 165 168 197 215 152 144 144 151 157 159 161 158 154 168 164 150 145 146 149 144 142 143 123 89 74 80 78 84 77 61 59 53 49 48 51 47 51
232 248 258 268 151 205 154 232 190 179 178 174 173 179 204 211 153 153 153 158 167 167 170 163 163 170 163 172 172 171 169 165 169 159 126 107 78 77 77 76 78 61 61 57 54 47 52 55 48
246 264 282 278 266 35 283 1 220 160 190 190 181 184 210 208 162 160 161 166 173 173 179 177 175 170 175 173 171 182 191 170 162 153 154 140 115 77 89 75 63 65 56 62 59 49 45 52 51
251 237 279 323 37 307 255 233 162 180 199 188 183 190 204 204 168 164 167 171 177 179 185 180 180 179 177 189 185 169 159 160 162 164 166 156 135 117 110 98 64 54 58 58 68 60 46 50 47
260 153 284 321 265 233 277 283 268 203 176 182 185 188 198 196 169 168 166 171 174 181 185 180 182 177 184 183 176 163 156 165 158 154 148 153 147 136 110 104 74 57 46 58 75 69 56 43 43
226 174 164 214 223 247 345 327 332 185 179 179 179 183 190 179 171 172 170 174 174 182 185 183 187 178 184 183 181 178 175 168 167 166 173 167 183 203 178 138 99 58 38 46 92 68 46 20 34
243 213 199 237 267 101 198 292 348 20 142 166 177 178 184 174 171 174 172 176 174 181 183 186 193 185 187 184 178 175 178 182 178 179 180 189 185 186 169 160 163 111 15 4 89 71 45 13 20
194 180 212 288 237 241 213 191 291 160 164 173 173 170 172 171 173 173 176 177 175 183 185 189 196 191 187 186 184 179 176 180 181 182 190 192 179 181 196 192 196 199 239 297 22 338 19 357 4
149 226 212 178 178 180 209 234 185 193 189 159 169 165 169 174 176 175 178 179 178 183 185 188 193 193 187 187 184 183 186 188 189 187 190 204 198 197 193 208 202 209 224 254 271 290 26 342 341
182 202 189 139 253 89 144 262 166 176 177 160 175 173 174 176 176 179 174 178 179 179 183 187 191 191 189 187 186 188 188 188 190 189 193 196 199 201 203 213 210 222 229 249 253 261 280 320 329